Year,Month,Day,Hour,Minute,Value (Times are PST for insolation in W/m^2)
2023,11,02,00,00,0.00
2023,11,02,00,01,0.00
2023,11,02,00,02,0.00
2023,11,02,00,03,0.00
2023,11,02,00,04,0.00
2023,11,02,00,05,0.00
2023,11,02,00,06,0.00
2023,11,02,00,07,0.00
2023,11,02,00,08,0.00
2023,11,02,00,09,0.00
2023,11,02,00,10,0.00
2023,11,02,00,11,0.00
2023,11,02,00,12,0.00
2023,11,02,00,13,0.00
2023,11,02,00,14,0.00
2023,11,02,00,15,0.00
2023,11,02,00,16,0.00
2023,11,02,00,17,0.00
2023,11,02,00,18,0.00
2023,11,02,00,19,0.00
2023,11,02,00,20,0.00
2023,11,02,00,21,0.00
2023,11,02,00,22,0.00
2023,11,02,00,23,0.00
2023,11,02,00,24,0.00
2023,11,02,00,25,0.00
2023,11,02,00,26,0.00
2023,11,02,00,27,0.00
2023,11,02,00,28,0.00
2023,11,02,00,29,0.00
2023,11,02,00,30,0.00
2023,11,02,00,31,0.00
2023,11,02,00,32,0.00
2023,11,02,00,33,0.00
2023,11,02,00,34,0.00
2023,11,02,00,35,0.00
2023,11,02,00,36,0.00
2023,11,02,00,37,0.00
2023,11,02,00,38,0.00
2023,11,02,00,39,0.00
2023,11,02,00,40,0.00
2023,11,02,00,41,0.00
2023,11,02,00,42,0.00
2023,11,02,00,43,0.00
2023,11,02,00,44,0.00
2023,11,02,00,45,0.00
2023,11,02,00,46,0.00
2023,11,02,00,47,0.00
2023,11,02,00,48,0.00
2023,11,02,00,49,0.00
2023,11,02,00,50,0.00
2023,11,02,00,51,0.00
2023,11,02,00,52,0.00
2023,11,02,00,53,0.00
2023,11,02,00,54,0.00
2023,11,02,00,55,0.00
2023,11,02,00,56,0.00
2023,11,02,00,57,0.00
2023,11,02,00,58,0.00
2023,11,02,00,59,0.00
2023,11,02,01,00,0.00
2023,11,02,01,01,0.00
2023,11,02,01,02,0.00
2023,11,02,01,03,0.00
2023,11,02,01,04,0.00
2023,11,02,01,05,0.00
2023,11,02,01,06,0.00
2023,11,02,01,07,0.00
2023,11,02,01,08,0.00
2023,11,02,01,09,0.00
2023,11,02,01,10,0.00
2023,11,02,01,11,0.00
2023,11,02,01,12,0.00
2023,11,02,01,13,0.00
2023,11,02,01,14,0.00
2023,11,02,01,15,0.00
2023,11,02,01,16,0.00
2023,11,02,01,17,0.00
2023,11,02,01,18,0.00
2023,11,02,01,19,0.00
2023,11,02,01,20,0.00
2023,11,02,01,21,0.00
2023,11,02,01,22,0.00
2023,11,02,01,23,0.00
2023,11,02,01,24,0.00
2023,11,02,01,25,0.00
2023,11,02,01,26,0.00
2023,11,02,01,27,0.00
2023,11,02,01,28,0.00
2023,11,02,01,29,0.00
2023,11,02,01,30,0.00
2023,11,02,01,31,0.00
2023,11,02,01,32,0.00
2023,11,02,01,33,0.00
2023,11,02,01,34,0.00
2023,11,02,01,35,0.00
2023,11,02,01,36,0.00
2023,11,02,01,37,0.00
2023,11,02,01,38,0.00
2023,11,02,01,39,0.00
2023,11,02,01,40,0.00
2023,11,02,01,41,0.00
2023,11,02,01,42,0.00
2023,11,02,01,43,0.00
2023,11,02,01,44,0.00
2023,11,02,01,45,0.00
2023,11,02,01,46,0.00
2023,11,02,01,47,0.00
2023,11,02,01,48,0.00
2023,11,02,01,49,0.00
2023,11,02,01,50,0.00
2023,11,02,01,51,0.00
2023,11,02,01,52,0.00
2023,11,02,01,53,0.00
2023,11,02,01,54,0.00
2023,11,02,01,55,0.00
2023,11,02,01,56,0.00
2023,11,02,01,57,0.00
2023,11,02,01,58,0.00
2023,11,02,01,59,0.00
2023,11,02,02,00,0.00
2023,11,02,02,01,0.00
2023,11,02,02,02,0.00
2023,11,02,02,03,0.00
2023,11,02,02,04,0.00
2023,11,02,02,05,0.00
2023,11,02,02,06,0.00
2023,11,02,02,07,0.00
2023,11,02,02,08,0.00
2023,11,02,02,09,0.00
2023,11,02,02,10,0.00
2023,11,02,02,11,0.00
2023,11,02,02,12,0.00
2023,11,02,02,13,0.00
2023,11,02,02,14,0.00
2023,11,02,02,15,0.00
2023,11,02,02,16,0.00
2023,11,02,02,17,0.00
2023,11,02,02,18,0.00
2023,11,02,02,19,0.00
2023,11,02,02,20,0.00
2023,11,02,02,21,0.00
2023,11,02,02,22,0.00
2023,11,02,02,23,0.00
2023,11,02,02,24,0.00
2023,11,02,02,25,0.00
2023,11,02,02,26,0.00
2023,11,02,02,27,0.00
2023,11,02,02,28,0.00
2023,11,02,02,29,0.00
2023,11,02,02,30,0.00
2023,11,02,02,31,0.00
2023,11,02,02,32,0.00
2023,11,02,02,33,0.00
2023,11,02,02,34,0.00
2023,11,02,02,35,0.00
2023,11,02,02,36,0.00
2023,11,02,02,37,0.00
2023,11,02,02,38,0.00
2023,11,02,02,39,0.00
2023,11,02,02,40,0.00
2023,11,02,02,41,0.00
2023,11,02,02,42,0.00
2023,11,02,02,43,0.00
2023,11,02,02,44,0.00
2023,11,02,02,45,0.00
2023,11,02,02,46,0.00
2023,11,02,02,47,0.00
2023,11,02,02,48,0.00
2023,11,02,02,49,0.00
2023,11,02,02,50,0.00
2023,11,02,02,51,0.00
2023,11,02,02,52,0.00
2023,11,02,02,53,0.00
2023,11,02,02,54,0.00
2023,11,02,02,55,0.00
2023,11,02,02,56,0.00
2023,11,02,02,57,0.00
2023,11,02,02,58,0.00
2023,11,02,02,59,0.00
2023,11,02,03,00,0.00
2023,11,02,03,01,0.00
2023,11,02,03,02,0.00
2023,11,02,03,03,0.00
2023,11,02,03,04,0.00
2023,11,02,03,05,0.00
2023,11,02,03,06,0.00
2023,11,02,03,07,0.00
2023,11,02,03,08,0.00
2023,11,02,03,09,0.00
2023,11,02,03,10,0.00
2023,11,02,03,11,0.00
2023,11,02,03,12,0.00
2023,11,02,03,13,0.00
2023,11,02,03,14,0.00
2023,11,02,03,15,0.00
2023,11,02,03,16,0.00
2023,11,02,03,17,0.00
2023,11,02,03,18,0.00
2023,11,02,03,19,0.00
2023,11,02,03,20,0.00
2023,11,02,03,21,0.00
2023,11,02,03,22,0.00
2023,11,02,03,23,0.00
2023,11,02,03,24,0.00
2023,11,02,03,25,0.00
2023,11,02,03,26,0.00
2023,11,02,03,27,0.00
2023,11,02,03,28,0.00
2023,11,02,03,29,0.00
2023,11,02,03,30,0.00
2023,11,02,03,31,0.00
2023,11,02,03,32,0.00
2023,11,02,03,33,0.00
2023,11,02,03,34,0.00
2023,11,02,03,35,0.00
2023,11,02,03,36,0.00
2023,11,02,03,37,0.00
2023,11,02,03,38,0.00
2023,11,02,03,39,0.00
2023,11,02,03,40,0.00
2023,11,02,03,41,0.00
2023,11,02,03,42,0.00
2023,11,02,03,43,0.00
2023,11,02,03,44,0.00
2023,11,02,03,45,0.00
2023,11,02,03,46,0.00
2023,11,02,03,47,0.00
2023,11,02,03,48,0.00
2023,11,02,03,49,0.00
2023,11,02,03,50,0.00
2023,11,02,03,51,0.00
2023,11,02,03,52,0.00
2023,11,02,03,53,0.00
2023,11,02,03,54,0.00
2023,11,02,03,55,0.00
2023,11,02,03,56,0.00
2023,11,02,03,57,0.00
2023,11,02,03,58,0.00
2023,11,02,03,59,0.00
2023,11,02,04,00,0.00
2023,11,02,04,01,0.00
2023,11,02,04,02,0.00
2023,11,02,04,03,0.00
2023,11,02,04,04,0.00
2023,11,02,04,05,0.00
2023,11,02,04,06,0.00
2023,11,02,04,07,0.00
2023,11,02,04,08,0.00
2023,11,02,04,09,0.00
2023,11,02,04,10,0.00
2023,11,02,04,11,0.00
2023,11,02,04,12,0.00
2023,11,02,04,13,0.00
2023,11,02,04,14,0.00
2023,11,02,04,15,0.00
2023,11,02,04,16,0.00
2023,11,02,04,17,0.00
2023,11,02,04,18,0.00
2023,11,02,04,19,0.00
2023,11,02,04,20,0.00
2023,11,02,04,21,0.00
2023,11,02,04,22,0.00
2023,11,02,04,23,0.00
2023,11,02,04,24,0.00
2023,11,02,04,25,0.00
2023,11,02,04,26,0.00
2023,11,02,04,27,0.00
2023,11,02,04,28,0.00
2023,11,02,04,29,0.00
2023,11,02,04,30,0.00
2023,11,02,04,31,0.00
2023,11,02,04,32,0.00
2023,11,02,04,33,0.00
2023,11,02,04,34,0.00
2023,11,02,04,35,0.00
2023,11,02,04,36,0.00
2023,11,02,04,37,0.00
2023,11,02,04,38,0.00
2023,11,02,04,39,0.00
2023,11,02,04,40,0.00
2023,11,02,04,41,0.00
2023,11,02,04,42,0.00
2023,11,02,04,43,0.00
2023,11,02,04,44,0.00
2023,11,02,04,45,0.00
2023,11,02,04,46,0.00
2023,11,02,04,47,0.00
2023,11,02,04,48,0.00
2023,11,02,04,49,0.00
2023,11,02,04,50,0.00
2023,11,02,04,51,0.00
2023,11,02,04,52,0.00
2023,11,02,04,53,0.00
2023,11,02,04,54,0.00
2023,11,02,04,55,0.00
2023,11,02,04,56,0.00
2023,11,02,04,57,0.00
2023,11,02,04,58,0.00
2023,11,02,04,59,0.00
2023,11,02,05,00,0.00
2023,11,02,05,01,0.00
2023,11,02,05,02,0.00
2023,11,02,05,03,0.00
2023,11,02,05,04,0.00
2023,11,02,05,05,0.00
2023,11,02,05,06,0.00
2023,11,02,05,07,0.00
2023,11,02,05,08,0.00
2023,11,02,05,09,0.00
2023,11,02,05,10,0.00
2023,11,02,05,11,0.00
2023,11,02,05,12,0.00
2023,11,02,05,13,0.00
2023,11,02,05,14,0.00
2023,11,02,05,15,0.00
2023,11,02,05,16,0.00
2023,11,02,05,17,0.00
2023,11,02,05,18,0.00
2023,11,02,05,19,0.00
2023,11,02,05,20,0.00
2023,11,02,05,21,0.00
2023,11,02,05,22,0.00
2023,11,02,05,23,0.00
2023,11,02,05,24,0.00
2023,11,02,05,25,0.00
2023,11,02,05,26,0.00
2023,11,02,05,27,0.00
2023,11,02,05,28,0.00
2023,11,02,05,29,0.00
2023,11,02,05,30,0.00
2023,11,02,05,31,0.00
2023,11,02,05,32,0.00
2023,11,02,05,33,0.00
2023,11,02,05,34,0.00
2023,11,02,05,35,0.00
2023,11,02,05,36,0.00
2023,11,02,05,37,0.00
2023,11,02,05,38,0.00
2023,11,02,05,39,0.00
2023,11,02,05,40,0.00
2023,11,02,05,41,0.00
2023,11,02,05,42,0.00
2023,11,02,05,43,0.00
2023,11,02,05,44,0.00
2023,11,02,05,45,0.00
2023,11,02,05,46,0.00
2023,11,02,05,47,0.00
2023,11,02,05,48,0.00
2023,11,02,05,49,0.00
2023,11,02,05,50,0.00
2023,11,02,05,51,0.00
2023,11,02,05,52,0.00
2023,11,02,05,53,0.00
2023,11,02,05,54,0.00
2023,11,02,05,55,0.00
2023,11,02,05,56,0.00
2023,11,02,05,57,0.00
2023,11,02,05,58,0.00
2023,11,02,05,59,0.00
2023,11,02,06,00,0.00
2023,11,02,06,01,0.00
2023,11,02,06,02,0.00
2023,11,02,06,03,0.00
2023,11,02,06,04,0.00
2023,11,02,06,05,0.00
2023,11,02,06,06,0.00
2023,11,02,06,07,0.00
2023,11,02,06,08,0.00
2023,11,02,06,09,0.00
2023,11,02,06,10,0.00
2023,11,02,06,11,0.00
2023,11,02,06,12,0.00
2023,11,02,06,13,0.00
2023,11,02,06,14,0.00
2023,11,02,06,15,0.00
2023,11,02,06,16,0.00
2023,11,02,06,17,0.00
2023,11,02,06,18,0.00
2023,11,02,06,19,0.00
2023,11,02,06,20,0.00
2023,11,02,06,21,0.00
2023,11,02,06,22,0.00
2023,11,02,06,23,0.00
2023,11,02,06,24,0.00
2023,11,02,06,25,0.00
2023,11,02,06,26,0.00
2023,11,02,06,27,0.00
2023,11,02,06,28,0.00
2023,11,02,06,29,0.00
2023,11,02,06,30,0.00
2023,11,02,06,31,0.00
2023,11,02,06,32,0.00
2023,11,02,06,33,0.00
2023,11,02,06,34,0.00
2023,11,02,06,35,0.00
2023,11,02,06,36,0.00
2023,11,02,06,37,0.00
2023,11,02,06,38,0.00
2023,11,02,06,39,0.00
2023,11,02,06,40,0.00
2023,11,02,06,41,0.00
2023,11,02,06,42,0.00
2023,11,02,06,43,0.00
2023,11,02,06,44,0.00
2023,11,02,06,45,0.00
2023,11,02,06,46,0.00
2023,11,02,06,47,0.00
2023,11,02,06,48,0.00
2023,11,02,06,49,0.00
2023,11,02,06,50,0.00
2023,11,02,06,51,0.00
2023,11,02,06,52,0.00
2023,11,02,06,53,0.00
2023,11,02,06,54,0.00
2023,11,02,06,55,0.00
2023,11,02,06,56,0.00
2023,11,02,06,57,0.00
2023,11,02,06,58,0.00
2023,11,02,06,59,0.00
2023,11,02,07,00,0.00
2023,11,02,07,01,0.00
2023,11,02,07,02,0.00
2023,11,02,07,03,0.00
2023,11,02,07,04,0.00
2023,11,02,07,05,0.00
2023,11,02,07,06,0.00
2023,11,02,07,07,0.00
2023,11,02,07,08,0.00
2023,11,02,07,09,0.00
2023,11,02,07,10,0.00
2023,11,02,07,11,0.00
2023,11,02,07,12,0.00
2023,11,02,07,13,0.00
2023,11,02,07,14,0.00
2023,11,02,07,15,0.00
2023,11,02,07,16,0.00
2023,11,02,07,17,0.00
2023,11,02,07,18,0.00
2023,11,02,07,19,0.00
2023,11,02,07,20,0.00
2023,11,02,07,21,0.00
2023,11,02,07,22,0.00
2023,11,02,07,23,0.00
2023,11,02,07,24,0.00
2023,11,02,07,25,0.00
2023,11,02,07,26,0.00
2023,11,02,07,27,0.00
2023,11,02,07,28,0.00
2023,11,02,07,29,0.00
2023,11,02,07,30,0.00
2023,11,02,07,31,0.00
2023,11,02,07,32,0.00
2023,11,02,07,33,0.00
2023,11,02,07,34,0.00
2023,11,02,07,35,0.00
2023,11,02,07,36,0.00
2023,11,02,07,37,0.00
2023,11,02,07,38,0.00
2023,11,02,07,39,0.00
2023,11,02,07,40,0.00
2023,11,02,07,41,0.00
2023,11,02,07,42,0.00
2023,11,02,07,43,0.00
2023,11,02,07,44,0.00
2023,11,02,07,45,0.00
2023,11,02,07,46,0.00
2023,11,02,07,47,0.00
2023,11,02,07,48,0.00
2023,11,02,07,49,0.00
2023,11,02,07,50,0.00
2023,11,02,07,51,0.00
2023,11,02,07,52,0.00
2023,11,02,07,53,0.00
2023,11,02,07,54,0.00
2023,11,02,07,55,0.00
2023,11,02,07,56,0.00
2023,11,02,07,57,0.00
2023,11,02,07,58,0.00
2023,11,02,07,59,0.00
2023,11,02,08,00,0.00
2023,11,02,08,01,0.00
2023,11,02,08,02,0.00
2023,11,02,08,03,0.00
2023,11,02,08,04,0.00
2023,11,02,08,05,0.00
2023,11,02,08,06,0.00
2023,11,02,08,07,0.00
2023,11,02,08,08,0.00
2023,11,02,08,09,0.00
2023,11,02,08,10,0.00
2023,11,02,08,11,0.00
2023,11,02,08,12,0.00
2023,11,02,08,13,0.00
2023,11,02,08,14,0.00
2023,11,02,08,15,0.00
2023,11,02,08,16,0.00
2023,11,02,08,17,0.00
2023,11,02,08,18,0.00
2023,11,02,08,19,0.00
2023,11,02,08,20,0.00
2023,11,02,08,21,0.00
2023,11,02,08,22,0.00
2023,11,02,08,23,0.00
2023,11,02,08,24,0.00
2023,11,02,08,25,0.00
2023,11,02,08,26,0.00
2023,11,02,08,27,0.00
2023,11,02,08,28,0.00
2023,11,02,08,29,0.00
2023,11,02,08,30,0.00
2023,11,02,08,31,0.00
2023,11,02,08,32,0.00
2023,11,02,08,33,0.00
2023,11,02,08,34,0.00
2023,11,02,08,35,0.00
2023,11,02,08,36,0.00
2023,11,02,08,37,0.00
2023,11,02,08,38,0.00
2023,11,02,08,39,0.00
2023,11,02,08,40,0.00
2023,11,02,08,41,0.00
2023,11,02,08,42,2.50
2023,11,02,08,43,5.00
2023,11,02,08,44,5.00
2023,11,02,08,45,5.10
2023,11,02,08,46,7.00
2023,11,02,08,47,7.70
2023,11,02,08,48,9.00
2023,11,02,08,49,10.30
2023,11,02,08,50,9.40
2023,11,02,08,51,9.00
2023,11,02,08,52,9.00
2023,11,02,08,53,8.30
2023,11,02,08,54,6.00
2023,11,02,08,55,5.00
2023,11,02,08,56,5.00
2023,11,02,08,57,5.00
2023,11,02,08,58,5.00
2023,11,02,08,59,5.00
2023,11,02,09,00,5.00
2023,11,02,09,01,5.00
2023,11,02,09,02,5.00
2023,11,02,09,03,4.30
2023,11,02,09,04,0.00
2023,11,02,09,05,0.00
2023,11,02,09,06,0.00
2023,11,02,09,07,0.00
2023,11,02,09,08,0.00
2023,11,02,09,09,4.30
2023,11,02,09,10,0.00
2023,11,02,09,11,0.00
2023,11,02,09,12,0.00
2023,11,02,09,13,3.70
2023,11,02,09,14,6.80
2023,11,02,09,15,7.00
2023,11,02,09,16,7.00
2023,11,02,09,17,7.00
2023,11,02,09,18,7.00
2023,11,02,09,19,7.00
2023,11,02,09,20,7.00
2023,11,02,09,21,7.00
2023,11,02,09,22,7.00
2023,11,02,09,23,7.00
2023,11,02,09,24,7.00
2023,11,02,09,25,7.00
2023,11,02,09,26,7.00
2023,11,02,09,27,7.00
2023,11,02,09,28,7.00
2023,11,02,09,29,7.00
2023,11,02,09,30,8.30
2023,11,02,09,31,9.00
2023,11,02,09,32,9.00
2023,11,02,09,33,9.00
2023,11,02,09,34,9.00
2023,11,02,09,35,10.10
2023,11,02,09,36,11.00
2023,11,02,09,37,11.00
2023,11,02,09,38,11.00
2023,11,02,09,39,11.00
2023,11,02,09,40,11.00
2023,11,02,09,41,11.00
2023,11,02,09,42,11.00
2023,11,02,09,43,11.00
2023,11,02,09,44,11.00
2023,11,02,09,45,11.00
2023,11,02,09,46,11.00
2023,11,02,09,47,11.00
2023,11,02,09,48,11.00
2023,11,02,09,49,11.90
2023,11,02,09,50,11.90
2023,11,02,09,51,11.30
2023,11,02,09,52,12.90
2023,11,02,09,53,14.00
2023,11,02,09,54,14.00
2023,11,02,09,55,14.10
2023,11,02,09,56,17.60
2023,11,02,09,57,16.00
2023,11,02,09,58,17.00
2023,11,02,09,59,18.60
2023,11,02,10,00,18.20
2023,11,02,10,01,18.00
2023,11,02,10,02,18.00
2023,11,02,10,03,18.00
2023,11,02,10,04,18.00
2023,11,02,10,05,16.70
2023,11,02,10,06,16.00
2023,11,02,10,07,14.10
2023,11,02,10,08,14.00
2023,11,02,10,09,14.70
2023,11,02,10,10,16.00
2023,11,02,10,11,17.30
2023,11,02,10,12,18.00
2023,11,02,10,13,18.00
2023,11,02,10,14,18.30
2023,11,02,10,15,19.00
2023,11,02,10,16,19.00
2023,11,02,10,17,19.00
2023,11,02,10,18,20.70
2023,11,02,10,19,21.00
2023,11,02,10,20,21.00
2023,11,02,10,21,21.00
2023,11,02,10,22,21.00
2023,11,02,10,23,19.70
2023,11,02,10,24,19.00
2023,11,02,10,25,20.90
2023,11,02,10,26,21.60
2023,11,02,10,27,23.00
2023,11,02,10,28,23.00
2023,11,02,10,29,24.40
2023,11,02,10,30,23.30
2023,11,02,10,31,23.00
2023,11,02,10,32,23.60
2023,11,02,10,33,25.50
2023,11,02,10,34,27.20
2023,11,02,10,35,29.40
2023,11,02,10,36,30.00
2023,11,02,10,37,31.10
2023,11,02,10,38,37.60
2023,11,02,10,39,39.50
2023,11,02,10,40,41.30
2023,11,02,10,41,43.50
2023,11,02,10,42,44.10
2023,11,02,10,43,46.20
2023,11,02,10,44,46.70
2023,11,02,10,45,45.00
2023,11,02,10,46,42.70
2023,11,02,10,47,43.60
2023,11,02,10,48,44.00
2023,11,02,10,49,44.00
2023,11,02,10,50,44.00
2023,11,02,10,51,43.00
2023,11,02,10,52,44.60
2023,11,02,10,53,48.40
2023,11,02,10,54,53.00
2023,11,02,10,55,54.00
2023,11,02,10,56,54.80
2023,11,02,10,57,55.00
2023,11,02,10,58,48.70
2023,11,02,10,59,46.00
2023,11,02,11,00,46.10
2023,11,02,11,01,47.50
2023,11,02,11,02,49.00
2023,11,02,11,03,47.90
2023,11,02,11,04,47.00
2023,11,02,11,05,47.00
2023,11,02,11,06,46.10
2023,11,02,11,07,48.20
2023,11,02,11,08,52.30
2023,11,02,11,09,56.40
2023,11,02,11,10,56.50
2023,11,02,11,11,51.70
2023,11,02,11,12,49.00
2023,11,02,11,13,48.40
2023,11,02,11,14,44.80
2023,11,02,11,15,42.00
2023,11,02,11,16,42.00
2023,11,02,11,17,46.40
2023,11,02,11,18,47.00
2023,11,02,11,19,47.00
2023,11,02,11,20,48.00
2023,11,02,11,21,50.30
2023,11,02,11,22,51.00
2023,11,02,11,23,52.60
2023,11,02,11,24,48.10
2023,11,02,11,25,43.30
2023,11,02,11,26,42.00
2023,11,02,11,27,44.50
2023,11,02,11,28,46.00
2023,11,02,11,29,46.90
2023,11,02,11,30,47.00
2023,11,02,11,31,46.60
2023,11,02,11,32,45.00
2023,11,02,11,33,42.70
2023,11,02,11,34,43.60
2023,11,02,11,35,44.20
2023,11,02,11,36,46.30
2023,11,02,11,37,47.00
2023,11,02,11,38,47.00
2023,11,02,11,39,47.00
2023,11,02,11,40,47.00
2023,11,02,11,41,49.50
2023,11,02,11,42,55.60
2023,11,02,11,43,64.90
2023,11,02,11,44,68.10
2023,11,02,11,45,65.00
2023,11,02,11,46,71.00
2023,11,02,11,47,73.40
2023,11,02,11,48,69.00
2023,11,02,11,49,69.00
2023,11,02,11,50,69.00
2023,11,02,11,51,64.80
2023,11,02,11,52,57.00
2023,11,02,11,53,50.00
2023,11,02,11,54,42.80
2023,11,02,11,55,43.10
2023,11,02,11,56,51.10
2023,11,02,11,57,54.00
2023,11,02,11,58,63.40
2023,11,02,11,59,54.30
2023,11,02,12,00,48.30
2023,11,02,12,01,51.00
2023,11,02,12,02,51.00
2023,11,02,12,03,54.90
2023,11,02,12,04,62.30
2023,11,02,12,05,64.60
2023,11,02,12,06,62.70
2023,11,02,12,07,57.70
2023,11,02,12,08,49.20
2023,11,02,12,09,47.00
2023,11,02,12,10,48.70
2023,11,02,12,11,70.00
2023,11,02,12,12,70.00
2023,11,02,12,13,69.50
2023,11,02,12,14,65.20
2023,11,02,12,15,56.00
2023,11,02,12,16,53.10
2023,11,02,12,17,53.30
2023,11,02,12,18,51.70
2023,11,02,12,19,52.00
2023,11,02,12,20,52.30
2023,11,02,12,21,57.10
2023,11,02,12,22,53.20
2023,11,02,12,23,57.40
2023,11,02,12,24,72.90
2023,11,02,12,25,76.40
2023,11,02,12,26,71.80
2023,11,02,12,27,64.00
2023,11,02,12,28,65.40
2023,11,02,12,29,74.00
2023,11,02,12,30,55.30
2023,11,02,12,31,52.30
2023,11,02,12,32,65.60
2023,11,02,12,33,82.30
2023,11,02,12,34,75.70
2023,11,02,12,35,74.90
2023,11,02,12,36,74.00
2023,11,02,12,37,62.90
2023,11,02,12,38,56.50
2023,11,02,12,39,68.40
2023,11,02,12,40,81.00
2023,11,02,12,41,81.60
2023,11,02,12,42,79.90
2023,11,02,12,43,74.80
2023,11,02,12,44,67.00
2023,11,02,12,45,57.10
2023,11,02,12,46,66.30
2023,11,02,12,47,62.00
2023,11,02,12,48,55.70
2023,11,02,12,49,55.40
2023,11,02,12,50,63.40
2023,11,02,12,51,65.80
2023,11,02,12,52,77.80
2023,11,02,12,53,71.00
2023,11,02,12,54,42.80
2023,11,02,12,55,51.00
2023,11,02,12,56,88.10
2023,11,02,12,57,86.90
2023,11,02,12,58,51.20
2023,11,02,12,59,48.90
2023,11,02,13,00,59.50
2023,11,02,13,01,74.30
2023,11,02,13,02,82.30
2023,11,02,13,03,80.50
2023,11,02,13,04,77.30
2023,11,02,13,05,81.00
2023,11,02,13,06,78.40
2023,11,02,13,07,68.70
2023,11,02,13,08,55.20
2023,11,02,13,09,53.80
2023,11,02,13,10,64.10
2023,11,02,13,11,80.10
2023,11,02,13,12,79.30
2023,11,02,13,13,65.60
2023,11,02,13,14,55.20
2023,11,02,13,15,60.00
2023,11,02,13,16,65.20
2023,11,02,13,17,81.90
2023,11,02,13,18,93.90
2023,11,02,13,19,116.50
2023,11,02,13,20,129.00
2023,11,02,13,21,121.10
2023,11,02,13,22,110.30
2023,11,02,13,23,106.00
2023,11,02,13,24,113.90
2023,11,02,13,25,118.00
2023,11,02,13,26,106.00
2023,11,02,13,27,105.00
2023,11,02,13,28,92.30
2023,11,02,13,29,67.00
2023,11,02,13,30,68.30
2023,11,02,13,31,69.80
2023,11,02,13,32,70.00
2023,11,02,13,33,69.30
2023,11,02,13,34,67.70
2023,11,02,13,35,72.60
2023,11,02,13,36,80.70
2023,11,02,13,37,87.10
2023,11,02,13,38,85.00
2023,11,02,13,39,72.40
2023,11,02,13,40,60.40
2023,11,02,13,41,59.10
2023,11,02,13,42,65.90
2023,11,02,13,43,74.70
2023,11,02,13,44,78.90
2023,11,02,13,45,80.00
2023,11,02,13,46,86.30
2023,11,02,13,47,93.20
2023,11,02,13,48,98.30
2023,11,02,13,49,116.30
2023,11,02,13,50,121.30
2023,11,02,13,51,137.40
2023,11,02,13,52,143.60
2023,11,02,13,53,136.10
2023,11,02,13,54,144.50
2023,11,02,13,55,160.50
2023,11,02,13,56,185.70
2023,11,02,13,57,184.40
2023,11,02,13,58,186.60
2023,11,02,13,59,206.00
2023,11,02,14,00,177.10
2023,11,02,14,01,143.90
2023,11,02,14,02,145.40
2023,11,02,14,03,173.00
2023,11,02,14,04,208.40
2023,11,02,14,05,237.30
2023,11,02,14,06,226.70
2023,11,02,14,07,164.20
2023,11,02,14,08,137.00
2023,11,02,14,09,140.70
2023,11,02,14,10,158.10
2023,11,02,14,11,184.10
2023,11,02,14,12,196.10
2023,11,02,14,13,199.80
2023,11,02,14,14,189.60
2023,11,02,14,15,150.00
2023,11,02,14,16,140.60
2023,11,02,14,17,137.00
2023,11,02,14,18,137.00
2023,11,02,14,19,148.30
2023,11,02,14,20,144.80
2023,11,02,14,21,119.30
2023,11,02,14,22,118.20
2023,11,02,14,23,121.00
2023,11,02,14,24,95.60
2023,11,02,14,25,85.00
2023,11,02,14,26,94.40
2023,11,02,14,27,111.70
2023,11,02,14,28,126.90
2023,11,02,14,29,158.90
2023,11,02,14,30,200.80
2023,11,02,14,31,249.40
2023,11,02,14,32,264.90
2023,11,02,14,33,251.80
2023,11,02,14,34,250.00
2023,11,02,14,35,242.30
2023,11,02,14,36,227.10
2023,11,02,14,37,195.80
2023,11,02,14,38,176.00
2023,11,02,14,39,222.00
2023,11,02,14,40,244.40
2023,11,02,14,41,259.70
2023,11,02,14,42,264.70
2023,11,02,14,43,267.40
2023,11,02,14,44,249.30
2023,11,02,14,45,186.70
2023,11,02,14,46,196.70
2023,11,02,14,47,220.80
2023,11,02,14,48,246.00
2023,11,02,14,49,259.70
2023,11,02,14,50,221.00
2023,11,02,14,51,193.60
2023,11,02,14,52,205.20
2023,11,02,14,53,225.40
2023,11,02,14,54,184.60
2023,11,02,14,55,181.00
2023,11,02,14,56,181.00
2023,11,02,14,57,181.00
2023,11,02,14,58,428.30
2023,11,02,14,59,552.00
2023,11,02,15,00,326.70
2023,11,02,15,01,318.00
2023,11,02,15,02,301.70
2023,11,02,15,03,274.00
2023,11,02,15,04,274.00
2023,11,02,15,05,449.20
2023,11,02,15,06,472.70
2023,11,02,15,07,448.20
2023,11,02,15,08,443.00
2023,11,02,15,09,392.40
2023,11,02,15,10,392.80
2023,11,02,15,11,445.90
2023,11,02,15,12,449.10
2023,11,02,15,13,432.00
2023,11,02,15,14,432.00
2023,11,02,15,15,433.20
2023,11,02,15,16,426.60
2023,11,02,15,17,414.20
2023,11,02,15,18,413.00
2023,11,02,15,19,411.50
2023,11,02,15,20,408.00
2023,11,02,15,21,281.80
2023,11,02,15,22,198.00
2023,11,02,15,23,273.50
2023,11,02,15,24,371.00
2023,11,02,15,25,371.00
2023,11,02,15,26,371.00
2023,11,02,15,27,282.20
2023,11,02,15,28,172.40
2023,11,02,15,29,157.00
2023,11,02,15,30,183.00
2023,11,02,15,31,245.70
2023,11,02,15,32,365.50
2023,11,02,15,33,354.80
2023,11,02,15,34,352.00
2023,11,02,15,35,161.30
2023,11,02,15,36,172.40
2023,11,02,15,37,286.10
2023,11,02,15,38,322.00
2023,11,02,15,39,328.30
2023,11,02,15,40,321.10
2023,11,02,15,41,318.00
2023,11,02,15,42,282.40
2023,11,02,15,43,157.30
2023,11,02,15,44,193.90
2023,11,02,15,45,212.30
2023,11,02,15,46,204.00
2023,11,02,15,47,204.00
2023,11,02,15,48,184.30
2023,11,02,15,49,122.30
2023,11,02,15,50,116.20
2023,11,02,15,51,96.90
2023,11,02,15,52,78.60
2023,11,02,15,53,68.30
2023,11,02,15,54,61.70
2023,11,02,15,55,56.00
2023,11,02,15,56,51.90
2023,11,02,15,57,52.40
2023,11,02,15,58,57.30
2023,11,02,15,59,58.00
2023,11,02,16,00,58.60
2023,11,02,16,01,60.00
2023,11,02,16,02,58.80
2023,11,02,16,03,55.00
2023,11,02,16,04,51.30
2023,11,02,16,05,49.70
2023,11,02,16,06,53.30
2023,11,02,16,07,54.00
2023,11,02,16,08,56.50
2023,11,02,16,09,58.00
2023,11,02,16,10,57.90
2023,11,02,16,11,55.30
2023,11,02,16,12,50.80
2023,11,02,16,13,46.50
2023,11,02,16,14,44.70
2023,11,02,16,15,44.00
2023,11,02,16,16,44.00
2023,11,02,16,17,44.70
2023,11,02,16,18,47.70
2023,11,02,16,19,49.00
2023,11,02,16,20,47.70
2023,11,02,16,21,46.20
2023,11,02,16,22,42.10
2023,11,02,16,23,41.50
2023,11,02,16,24,40.00
2023,11,02,16,25,39.40
2023,11,02,16,26,37.70
2023,11,02,16,27,37.00
2023,11,02,16,28,37.00
2023,11,02,16,29,37.00
2023,11,02,16,30,37.00
2023,11,02,16,31,37.00
2023,11,02,16,32,40.50
2023,11,02,16,33,42.00
2023,11,02,16,34,41.70
2023,11,02,16,35,40.00
2023,11,02,16,36,39.60
2023,11,02,16,37,39.00
2023,11,02,16,38,39.00
2023,11,02,16,39,41.70
2023,11,02,16,40,43.70
2023,11,02,16,41,41.10
2023,11,02,16,42,38.10
2023,11,02,16,43,37.00
2023,11,02,16,44,37.00
2023,11,02,16,45,35.10
2023,11,02,16,46,31.60
2023,11,02,16,47,29.30
2023,11,02,16,48,29.00
2023,11,02,16,49,31.30
2023,11,02,16,50,34.30
2023,11,02,16,51,38.60
2023,11,02,16,52,36.60
2023,11,02,16,53,35.00
2023,11,02,16,54,33.40
2023,11,02,16,55,30.70
2023,11,02,16,56,28.40
2023,11,02,16,57,26.30
2023,11,02,16,58,28.00
2023,11,02,16,59,27.30
2023,11,02,17,00,25.50
2023,11,02,17,01,23.70
2023,11,02,17,02,23.00
2023,11,02,17,03,21.10
2023,11,02,17,04,20.50
2023,11,02,17,05,19.00
2023,11,02,17,06,19.00
2023,11,02,17,07,20.40
2023,11,02,17,08,21.00
2023,11,02,17,09,21.00
2023,11,02,17,10,21.00
2023,11,02,17,11,20.20
2023,11,02,17,12,18.40
2023,11,02,17,13,18.00
2023,11,02,17,14,18.90
2023,11,02,17,15,18.90
2023,11,02,17,16,17.40
2023,11,02,17,17,15.10
2023,11,02,17,18,14.00
2023,11,02,17,19,14.00
2023,11,02,17,20,12.30
2023,11,02,17,21,11.00
2023,11,02,17,22,10.40
2023,11,02,17,23,9.00
2023,11,02,17,24,9.00
2023,11,02,17,25,9.00
2023,11,02,17,26,10.80
2023,11,02,17,27,11.00
2023,11,02,17,28,11.00
2023,11,02,17,29,11.50
2023,11,02,17,30,12.00
2023,11,02,17,31,13.60
2023,11,02,17,32,13.90
2023,11,02,17,33,12.00
2023,11,02,17,34,12.00
2023,11,02,17,35,12.00
2023,11,02,17,36,11.30
2023,11,02,17,37,11.00
2023,11,02,17,38,9.00